User: anonymous   Login
Location: Wiesbaden
(50.0830°N, 8.2500°E)
Time: 13:37:52
(UTC+01:00)
Language:

ISS - Orbit

View from above orbital plane
View from above orbital plane
View from above satellite
View from above satellite

Ground track
Ground track

The orbit data is extracted from the following two-line orbital elements,

1 25544U 98067A   18350.20034679  .00016717  00000-0  10270-3 0  9049
2 25544  51.6365 191.6668 0004780 149.4773 210.6659 15.54076199 26812
Epoch (UTC): 16 December 2018 04:48:29
Eccentricity: 0.0004780
inclination: 51.6365°
perigee height: 401 km
apogee height: 408 km
right ascension of ascending node: 191.6668°
argument of perigee: 149.4773°
revolutions per day: 15.54076199
mean anomaly at epoch: 210.6659°
orbit number at epoch: 2681

The dashed part of the orbit path shows where the satellite is in the earth's shadow,  

DLR